Zurück zum Katalog

CZ-2C R/B

AktivSSO
NORAD 37731·ROCKET BODY·🇨🇳 China

Gestartet Jul 6, 2011 von Jiuquan Satellite Launch Center

Loading…

Nächste Überflüge (nächste 24 Stunden)

TLE

AktuellSource: Space-Track

Epoche: Sep 14, 2026, 14:48 UTC

1 37731U 11030B   26257.61722090  .00000805  00000-0  10674-3 0  9999
2 37731  97.8750 211.4397 0053619  95.1577  77.8619 14.81620658818066

Verfolge CZ-2C R/B in Echtzeit mit AllMySat

Download on the App Store